Regional Weather Roundup
Issued by NWS

Home | Current Version | Previous Version | Text Only | Print | Product List | Glossary On
Versions: 1 2 3 4 5 6 7 8 9 10 11 12 13 14 15 16 17 18 19 20 21 22 23 24 25 26 27 28 29 30 31 32 33 34 35 36 37 38 39 40 41 42 43 44 45 46 47 48 49 50
000
ASUS43 KMKX 200759
RWRWI

WISCONSIN REGIONAL WEATHER ROUNDUP
NATIONAL WEATHER SERVICE MILWAUKEE/SULLIVAN WI
200 AM CST TUE FEB 20 2018

NOTE: "FAIR" INDICATES FEW OR NO CLOUDS BELOW 12,000 FEET WITH NO
SIGNIFICANT WEATHER AND/OR OBSTRUCTIONS TO VISIBILITY.

WIZ001-002-006>008-014>016-023>028-200900-
NORTHWEST WISCONSIN

CITY           SKY/WX    TMP DP  RH WIND       PRES   REMARKS
SUPERIOR ARPT  CLOUDY    21  17  84 E20G29    29.95F WCI   5
ASHLAND        MIX PCPN  19  16  88 NE20      29.92F FOG     WCI   3
HAYWARD        CLOUDY    18  14  84 NE9       29.87F WCI   7
SIREN          CLOUDY    19  17  93 NE8       29.88F WCI   9
CUMBERLAND     CLOUDY    19  16  86 NE8       29.84S WCI   9
RICE LAKE      CLOUDY    19  17  92 NE6       29.87S WCI  11
CHETEK         CLOUDY    19  17  91 NE5       29.85F WCI  12
LADYSMITH      CLOUDY    19  17  92 NE7       29.84F WCI  10
EAU CLAIRE     NOT AVBL
MENOMONIE      CLOUDY    22  19  91 NE7       29.83F WCI  13
NEW RICHMOND   CLOUDY    19  16  86 NE7       29.84F WCI  10
OSCEOLA        CLOUDY    20  18  89 NE7       29.88F WCI  11
$$

WIZ003>005-009-010-017-018-200900-
NORTH CENTRAL WISCONSIN

CITY           SKY/WX    TMP DP  RH WIND       PRES   REMARKS
MANITOWISH WTR CLOUDY    17  17 100 NE8       29.85F FOG     WCI   6
ARBOR VITAE    CLOUDY    22  20  93 NE5       29.84S FOG     WCI  15
WOODRUFF       CLOUDY    22  20  93 NE5       29.84S FOG     WCI  15
RHINELANDER    CLOUDY    21  20  96 NE6       29.82F FOG     WCI  13
EAGLE RIVER    CLOUDY    20  19  98 NE7       29.83F FOG     WCI  11
LAND O LAKES   CLOUDY    20  18  95 NE6       29.86F FOG     WCI  12
PHILLIPS       CLOUDY    17  17  98 NE8       29.80F WCI   7
TOMAHAWK       CLOUDY    21  19  93 N3        29.83F
MEDFORD        CLOUDY    21  20  93 NE8       29.79F WCI  12
MERRILL        CLOUDY    23  22  96 NE8       29.82F WCI  14
$$

WIZ029-030-035-036-043>047-200900-
CENTRAL WISCONSIN

CITY           SKY/WX    TMP DP  RH WIND       PRES   REMARKS
WAUSAU         CLOUDY    26  25  96 NE5       29.79S FOG     WCI  20
MOSINEE        CLOUDY    27  27 100 NE7       29.80F FOG     WCI  19
MARSHFIELD     CLOUDY    25  25 100 NE5       29.79S FOG     WCI  19
STEVENS POINT  CLOUDY    25  25 100 NE6       29.81S FOG     WCI  18
WAUPACA        CLOUDY    30  28  92 NE6       29.82R FOG     WCI  24
WAUTOMA        CLOUDY    29  28  96 NE7       29.81R FOG     WCI  22
WISC RAPIDS    CLOUDY    27  24  89 NE5       29.82R FOG     WCI  22
CAMP DOUGLAS   FRZ DRZL  29  29  99 CALM      29.80R FOG
$$

WIZ011>013-019>022-031-037>040-048>050-200900-
NORTHEAST WISCONSIN

CITY           SKY/WX    TMP DP  RH WIND       PRES   REMARKS
ANTIGO         CLOUDY    24  24  99 NE9       29.80F FOG     WCI  14
SHAWANO        CLOUDY    29  27  93 NE7       29.82F FOG     WCI  22
OCONTO         CLOUDY    29  28  97 N5        29.82F WCI  24
STURGEON BAY   FOG       33  32  96 NE8       29.80F VSB 3/4 WCI  26
GREEN BAY      CLOUDY    30  28  92 N10       29.81S FOG     WCI  21
MANITOWOC      MIX PCPN  33  33 100 NW7       29.80S VSB 1   WCI  27
APPLETON       CLOUDY    30  30 100 NE6       29.79R FOG     WCI  24
CLINTONVILLE   CLOUDY    28  26  95 NE7       29.82S FOG     WCI  20
OSHKOSH        CLOUDY    29  28  96 N10       29.79F FOG     WCI  20
$$

WIZ032>034-041-042-053>061-200900-
SOUTHWEST WISCONSIN

CITY           SKY/WX    TMP DP  RH WIND       PRES   REMARKS
LA CROSSE      CLOUDY    31  29  92 NE3       29.80F
SPARTA         CLOUDY    28  28  99 NE3       29.82R FOG
VIROQUA        CLOUDY    30  30 100 NE7       29.77S WCI  23
BOSCOBEL       FOG       34  33  96 NE5       29.78F VSB 1/2 WCI  30
PRAIRIE DU CHI FOG       35  34  96 CALM      29.77S VSB 3/4
PLATTEVILLE    CLOUDY    35  35 100 SW5       29.78F VSB 1/4 WCI  31
$$

WIZ056-057-062-063-064-067-068-200900-
SOUTH CENTRAL WISCONSIN

CITY           SKY/WX    TMP DP  RH WIND       PRES   REMARKS
REEDSBURG      FOG       30  30 100 CALM      29.79S VSB 1/2
BARABOO/DELLS  FOG       30  29  99 NE6       29.78S VSB 1/4 WCI  24
LONE ROCK      NOT AVBL
MINERAL POINT  FOG       36  36 100 S5        29.76F VSB<1/4 WCI  32
MADISON        FOG       34  34 100 CALM      29.78F VSB 1/2
MIDDLETON      CLOUDY    34  34 100 CALM      29.77F VSB 1/2
WATERTOWN      FOG       35  35 100 CALM      29.77F VSB 1
MONROE         CLOUDY    39  37  93 SW9       29.78S FOG     WCI  33
JANESVILLE     LGT RAIN  39  39 100 CALM      29.78F VSB 1/4
$$

WIZ051-052-058>065-066-070>072-200900-
SOUTHEAST WISCONSIN

CITY           SKY/WX    TMP DP  RH WIND       PRES   REMARKS
MILWAUKEE      LGT RAIN  38  38 100 CALM      29.79S FOG
WAUKESHA       LGT RAIN  34  34 100 CALM      29.80R VSB 1/4
MILWAUKEE/TIMM FOG       36  34  93 CALM      29.80R VSB 3/4
RACINE         LGT RAIN  38  38 100 N3        29.80S FOG
BURLINGTON     DRZL/FOG  50  49  97 W6        29.78R VSB 1
KENOSHA        RAIN      56  54  93 S14       29.77F FOG
FOND DU LAC    CLOUDY    31  28  89 N8        29.79R WCI  23
SHEBOYGAN      CLOUDY    34  34 100 CALM      29.78F FOG
WEST BEND      FOG       34  34 100 NW3       29.79R VSB 1
JUNEAU         RAIN      33  32  98 CALM      29.78S VSB 1
$$

LSZ147-162-200900-
LAKE SUPERIOR

STATION/POSITION TIME  TEMP    WIND        PRES    WAVE
                       AIR SEA DIR/SP/G            HT/PER
                 (UTC) (F)     (DEG/KT/KT) (MB)    (FT/S)
DEVILS ISLAND    0700   20      50/ 31/ 35 1017.0F
SAXON HARBOR     0740   19      50/  8/ 11 1013.9F
$$

LMZ867-665-643>646-200900-
LAKE MICHIGAN

STATION/POSITION TIME  TEMP    WIND        PRES    WAVE
                       AIR SEA DIR/SP/G            HT/PER
                 (UTC) (F)     (DEG/KT/KT) (MB)    (FT/S)
NORTHPORT PIER   0740   31                 1010.5S
KEWAUNEE LAKESHO 0730   34     350/  6/  9 1008.4F
SHEBOYGAN LAKESH 0700   36     340/  9/ 10 1009.3R
PORT WASHINGTON  0740   36     350/  1/  2 1010.2S
MILWAUKEE LAKESH 0730   35      40/  5/  6   N/A
KENOSHA   LAKESH 0700   57     220/  6/ 10 1008.8
$$

TC  - TEMPERATURE IN CELSIUS
VSB - VISIBILITY IN STATUTE MILES
WCI - WIND CHILL INDEX
HX  - HEAT INDEX





USA.gov is the U.S. government's official web portal to all federal, state and local government web resources and services.